This is the latest recevied weather packets stored in our database for station/object DJ0JJ-11. If no packets are shown the sender has not sent any weather packets the latest 10 day(s).
| Time | Temp. | Humidity | Pressure | Rain* | Wind** | Luminosity | Snow |
|---|---|---|---|---|---|---|---|
| 1787562326 | 21.11° C | 53% | 1021.2 hPa | - | - | - | - |
| 1787561426 | 20° C | 54% | 1021.4 hPa | - | - | - | - |
| 1787560526 | 19.44° C | 54% | 1021.3 hPa | - | - | - | - |
| 1787559625 | 19.44° C | 55% | 1021.7 hPa | - | - | - | - |
| 1787558725 | 18.89° C | 56% | 1021.6 hPa | - | - | - | - |
| 1787557828 | 17.78° C | 59% | 1021.8 hPa | - | - | - | - |
| 1787556928 | 17.78° C | 58% | 1021.9 hPa | - | - | - | - |
| 1787556028 | 18.33° C | 57% | 1021.9 hPa | - | - | - | - |
| 1787555128 | 17.22° C | 59% | 1022 hPa | - | - | - | - |
| 1787554228 | 16.67° C | 61% | 1021.9 hPa | - | - | - | - |
| 1787553328 | 16.11° C | 63% | 1022 hPa | - | - | - | - |
| 1787552427 | 15.56° C | 65% | 1021.9 hPa | - | - | - | - |
| 1787551527 | 15.56° C | 65% | 1021.9 hPa | - | - | - | - |
| 1787550627 | 15° C | 66% | 1022 hPa | - | - | - | - |
| 1787549727 | 14.44° C | 67% | 1022.1 hPa | - | - | - | - |
| 1787548827 | 14.44° C | 68% | 1022.1 hPa | - | - | - | - |
| 1787547927 | 14.44° C | 68% | 1021.8 hPa | - | - | - | - |
| 1787547027 | 14.44° C | 67% | 1021.9 hPa | - | - | - | - |
| 1787546127 | 14.44° C | 67% | 1021.8 hPa | - | - | - | - |
| 1787545227 | 14.44° C | 66% | 1021.9 hPa | - | - | - | - |
| 1787544327 | 15° C | 66% | 1022.1 hPa | - | - | - | - |
| 1787543427 | 15° C | 66% | 1022.1 hPa | - | - | - | - |
| 1787542527 | 15° C | 66% | 1022.1 hPa | - | - | - | - |
| 1787541626 | 15° C | 65% | 1022.2 hPa | - | - | - | - |
| 1787540726 | 15° C | 64% | 1022.4 hPa | - | - | - | - |
* Rain since midnight (hover to see other rain measurements)
** Current wind speed in m/s (hover to see current wind gust speed)